Погода в Белозерске

Погода в Белозерске : погода сейчас, прогноз погоды и архив. Всё, что Вы хотите узнать о погоде в Белозерске!

Поиск расширенной информации на нашем сайте:

Другие новости

Новости СМИ2

Главная страница сайта

Новости сайта

03.07.2017

Напоминаем, что на нашем специализированном сайте Метеоцентр.Азия вы можете получить высокодетализированные автоматические прогнозы погоды по пунктам России, СНГ и мира в авиационном формате (включающие направление и скорость ветра, видимость, явления погоды, количество и форму облачности, нижнюю и верхнюю границу облачности).

Рекомендуем: серьезно купить датчик движения цена

Погода в Белозерске - сегодня

Время (UTC), дата Ветер
(°,м/с) 
Видим.   Явления Облачность Т
(°С)
Тd
(°С)
f(%) Тe
(°С)
Pmin
(гПа)
dP
(гПа)
Po
(мм)
O2
(г/м3)
Тmin Tmax R s Состояние
почвы
21 15.04.18 170 (Ю) 10 км    ясно 
-1.4 -5.8 72 -1  1020.9  753  306           
00 16.04.18 020 (С) 10 км    ясно 
-2.6 -5.6 80 -2  1020.6  -0.3  753  307           
06 16.04.18 160 (Ю) 10 км    3/0 верхняя 
[Cs]
+7.4 -5.7 39 +8  1018.7  -0.8  752  296           
09 16.04.18 360 (С) 10 км    3/0 верхняя 
[Cs]
+9.6 -4 38 +10  1018.3  -0.2  752  293           
12 16.04.18 350 (С) 10 км    8/0 верхняя 
[Cs]
+9.8 -4.2 37 +10  1017.4  -0.9  751  293           
18 16.04.18 170 (Ю) 10 км    8/3 1000 м средняя, верхняя 
[Sc|Ac trans|Cs]
+3.9 -4.3 55 +5  1016.5  -0.3  750  299           
00 17.04.18 260 (З) 10 км    ясно 
-1.5 -5.2 76 -1  1017.1  0.3  750  305           
03 17.04.18 330 (СЗ) 10 км    4/3 2000 м средняя, верхняя 
[Ac trans|Cs]
-0.8 -5 73 1017.2  0.1  751  304  -1.8      мокрый или
старый снег
10-40% 
06 17.04.18 300 (СЗ) 10 км    8/0 верхняя 
[Cc]
+4.6 -3.7 55 +5  1017.6  0.7  751  298           
09 17.04.18 020 (С) 10 км    10/0 верхняя 
[Cs]
+9.4 -4.6 37 +9  1017.6  0.3  751  293           
12 17.04.18 010 (С) 10 км    8/0 верхняя 
[Ci sp]
+11 -5.1 32 +11  1017  -0.5  751  291           
18 17.04.18 090 (В) 10 км    10/4 1000 м средняя, верхняя 
[Sc|Ac trans|Cs]
+7.3 -4.2 44 +7  1015.3  -0.9  749  295           
21 17.04.18 090 (В) 10 км    10/4 1000 м средняя, верхняя 
[Sc|Ac trans|Cs]
+7.2 -6.9 36 +8  1014.5  -0.8  749  295           
00 18.04.18 090 (В) 10 км    10/4 1000 м средняя 
[Sc|Ac und]
+7 -6.4 38 +7  1012.9  -1.6  748  294           
09 18.04.18 020 (С) 10 км    10/3 1000 м средняя 
[Sc|Ac As]
+7.7 -2.9 47 +8  1012.8  0.6  748  293           
12 18.04.18 030 (СВ) 10 км    10/6 1000 м средняя 
[Sc|Ac As]
+9.3 -3.3 41 +9  1013.5  0.7  748  292           
18 18.04.18 030 (СВ) 10 км    10/8 720 м средняя 
[Sc|Ac und]
+5.9 -3.1 52 +7  1014  0.3  748  296           
21 18.04.18 тихо ()   10 км    10/10 2000 м 
[Ac As]
+3 -2.5 67 +3  1013.6  -0.5  748  298           
00 19.04.18 310 (СЗ) 10 км    ясно 
+0.5 -3.2 76 +1  1013.3  -0.5  748  301           
06 19.04.18 340 (С) 10 км    8/0 верхняя 
[Ci]
+5 -4.6 50 +5  1012.7  0.3  747  296           
09 19.04.18 330 (СЗ) 10 км    8/0 верхняя 
[Cs]
+12 -4.2 32 +12  1012.5  0.2  748  289           
12 19.04.18 020 (С) 10 км    6/0 верхняя 
[Cs]
+10.9 -3.2 37 +10  1013.2  0.6  748  290           
18 19.04.18 320 (СЗ) 10 км    4/3 1000 м средняя 
[Sc|Ac trans]
+5.4 -2 59 +5  1015  0.8  749  296           
21 19.04.18 350 (С) 10 км    9/4 1000 м средняя 
[Sc|Ac trans]
+5 -1.9 61 +5  1015.3  0.3  749  297           
00 20.04.18 010 (С) 10 км    ясно 
+2.1 -3 69 +1  1017.2  1.7  751  301           
Время (UTC), дата Ветер
(°,м/с) 
Видим.   Явления Облачность Т
(°С)
Тd
(°С)
f(%) Тe
(°С)
Pmin
(гПа)
dP
(гПа)
Po
(мм)
O2
(г/м3)
Тmin Tmax R s Состояние
почвы

Для получения пояснительной информации подведите курсор к названию столбца.

ПОГОДА в Белозерске - архив

Всё, что Вы хотите узнать о погоде в Белозерске - удобно и подробно!

Выберите нужную дату (начиная с 1 января 2015* года) и нажмите кнопку "Найти".
Будут отображены архивные сводки погоды по пункту Белозерск, начиная с указанной даты.


Отображать данные в формате CSV (для использования в таблицах Excel)


Внимание! Наш архив погоды предназначен исключительно для личного некоммерческого использования в познавательных целях. Если Вам необходимы официальные справки о состоянии погоды (для производственных, юридических, коммерческих и т.п. целей), обращайтесь в органы Росгидромета.

*Примечание: данная дата относится к архиву по метеостанциям СССР (Россия, СНГ, Балтия).
Архив по метеостанциям Зарубежной Европы и Азии (кроме Китая) хранится 10 дней, по другим регионам земного шара (Китай, Африка, Америка, Австралия, Океания) - 1 день.

Белозерск - район местоположения метеостанции


Название, широта, долгота, высота метеостанции:
Белозерск 60°ш. 37.8°д. 131 м над ур. моря [Российская Федерация]

Дополнительная информация

В oтличие oт бoльшинства пoгoдных сайтoв мы публикуем пoдрoбную метеoинфoрмацию в детальнoм прoфессиoнальнoм фoрмате.

Характеристики температуры и влажнoсти вoздуха измеряются на высoте 2 м в тени вдали oт зданий и деревьев.
Скoрoсть ветра измеряется на высoте 10 м (на урoвне рoста челoвека скoрoсть ветра ниже в 1.5-2 раза). Если метеoстанция нахoдится в гoрoде или в лесу, тo скoрoсть ветра занижена на 2-4 м/с пo сравнению с oткрытым местoм. Скoрoсть ветра над акватoриями крупных рек и oзёр, а также на вершинах хoлмoв на 2-5 м/с выше, чем в oбычных услoвиях.
Атмoсфернoе давление в разных тoчках местнoсти мoжет значительнo oтличаться oт давления на метеoстанции, в зависимoсти oт услoвий рельефа (при пoдъёме на 10 м давление пoнижается примернo на 1 мм рт.ст.).